Weather History for KDEQ - September, 2011

Change the Weather History Date:

Saturday, September 17, 2011

  Actual Average Record
Temperature  
Mean Temperature 72 °F 73 °F  
Max Temperature 88 °F 86 °F 102 °F (1980)
Min Temperature 56 °F 61 °F 43 °F (1903)
Degree Days  
Heating Degree Days 0 0  
Month to date heating degree days 4 0  
Since 1 July heating degree days 4 0  
Cooling Degree Days 7 8  
Month to date cooling degree days 163 195  
Year to date cooling degree days 2352 1787  
Growing Degree Days 22 (Base 50)    
Moisture  
Dew Point 55 °F    
Average Humidity 69    
Maximum Humidity 100    
Minimum Humidity 37    
Precipitation  
Precipitation 0.35 in 0.12 in 2.07 in (1968)
Month to date precipitation 0.46 2.09  
Year to date precipitation 25.29 33.68  
Snow  
Snow 0.00 in - - ()
Month to date snowfall 0.0  
Since 1 July snowfall 0.0  
Since 1 September snowfall 0.0  
Snow Depth 0.00 in    
Sea Level Pressure  
Sea Level Pressure 30.08 in    
Wind  
Wind Speed 6 mph (NE)    
Max Wind Speed 13 mph    
Max Gust Speed 20 mph    
Visibility 9 miles    
Events Rain , Thunderstorm    
T = Trace of Precipitation, MM = Missing Value Source: NWS Daily Summary

Daily Weather History Graph

Daily Weather History Graph

Search for Another Location

Airport or City:

Trip Planner

Search our weather history database for the weather conditions in past years. The results will help you decide how hot, cold, wet, or windy it might be!

Date:

Astronomy

Sep. 17, 2011 Rise Set
Actual Time 7:02 AM CDT 7:21 PM CDT
Civil Twilight 6:36 AM CDT 7:46 PM CDT
Nautical Twilight 6:07 AM CDT 8:15 PM CDT
Astronomical Twilight 5:37 AM CDT 8:45 PM CDT
Moon 10:09 PM CDT (9/17) 11:48 AM CDT (9/17)
Length of Visible Light 13h 09m
Length of Day
12h 19m
Waning Gibbous, 76% of the Moon is Illuminated
Sep 17
Waning Gibbous
Sep 20
Last Quarter
Sep 27
New
Oct 3
First Quarter
Oct 11
Full

Hourly Weather History & Observations

Time (CDT) Temp. Heat Index Dew Point Humidity Pressure Visibility Wind Dir Wind Speed Gust Speed Precip Events Conditions
12:53 AM 57.9 °F - 53.1 °F 84% 30.11 in 10.0 mi NE 6.9 mph - N/A   Clear
1:53 AM 57.0 °F - 52.0 °F 83% 30.11 in 10.0 mi NE 6.9 mph - N/A   Partly Cloudy
2:53 AM 57.0 °F - 51.1 °F 81% 30.10 in 10.0 mi NE 6.9 mph - N/A   Clear
3:53 AM 57.0 °F - 50.0 °F 77% 30.10 in 10.0 mi NE 4.6 mph - N/A   Clear
4:53 AM 57.0 °F - 48.9 °F 74% 30.10 in 10.0 mi NE 4.6 mph - N/A   Mostly Cloudy
7:53 AM 59.0 °F - 50.0 °F 72% 30.13 in 10.0 mi NE 6.9 mph - N/A   Overcast
8:13 AM 59.0 °F - 50.0 °F 72% 30.14 in 10.0 mi NE 5.8 mph - N/A Thunderstorm Overcast
8:36 AM 59.0 °F - 51.8 °F 77% 30.15 in 10.0 mi ENE 4.6 mph - N/A   Overcast
8:53 AM 57.9 °F - 52.0 °F 81% 30.14 in 9.0 mi NNE 3.5 mph - 0.00 in Rain Light Rain
9:05 AM 57.2 °F - 53.6 °F 88% 30.14 in 10.0 mi NE 4.6 mph - 0.01 in Rain , Thunderstorm Light Thunderstorms and Rain
9:25 AM 55.4 °F - 53.6 °F 94% 30.14 in 1.8 mi NNE 3.5 mph - 0.14 in Rain , Thunderstorm Heavy Thunderstorms and Rain
9:32 AM 55.4 °F - 53.6 °F 94% 30.15 in 3.0 mi NNE 4.6 mph - 0.17 in Rain , Thunderstorm Heavy Thunderstorms and Rain
9:43 AM 55.4 °F - 55.4 °F 100% 30.14 in 2.0 mi NNE 4.6 mph - 0.29 in Rain Heavy Rain
9:50 AM 55.4 °F - 55.4 °F 100% 30.14 in 1.8 mi NNE 5.8 mph - 0.35 in Rain Heavy Rain
9:53 AM 55.9 °F - 55.0 °F 97% 30.13 in 2.5 mi NE 6.9 mph - 0.35 in Rain Rain
10:00 AM 57.2 °F - 55.4 °F 94% 30.14 in 10.0 mi NE 6.9 mph - 0.00 in Rain Light Rain
10:53 AM 63.0 °F - 57.0 °F 81% 30.13 in 10.0 mi NE 6.9 mph - 0.00 in   Mostly Cloudy
11:53 AM 68.0 °F - 57.0 °F 68% 30.13 in 10.0 mi NNE 5.8 mph - N/A   Clear
12:53 PM 72.0 °F - 57.9 °F 61% 30.09 in 10.0 mi Variable 3.5 mph - N/A   Clear
1:53 PM 78.1 °F - 60.1 °F 54% 30.04 in 10.0 mi Calm Calm - N/A   Clear
3:53 PM 87.1 °F 86.5 °F 59.0 °F 39% 29.97 in 10.0 mi SE 9.2 mph - N/A   Clear
4:53 PM 88.0 °F 87.1 °F 59.0 °F 37% 29.97 in 10.0 mi SE 5.8 mph - N/A   Clear
5:53 PM 86.0 °F 85.0 °F 57.9 °F 38% 29.95 in 10.0 mi SE 5.8 mph - N/A   Clear
7:53 PM 78.1 °F - 61.0 °F 56% 29.94 in 10.0 mi ENE 3.5 mph - N/A   Clear
8:53 PM 78.1 °F - 61.0 °F 56% 29.97 in 10.0 mi ENE 5.8 mph - N/A   Clear
9:53 PM 75.9 °F - 60.1 °F 58% 30.00 in 10.0 mi NE 9.2 mph - N/A   Clear
10:53 PM 73.0 °F - 61.0 °F 66% 29.99 in 10.0 mi NE 9.2 mph - N/A   Clear
11:53 PM 72.0 °F - 61.0 °F 68% 29.99 in 10.0 mi ENE 9.2 mph - N/A   Clear